Probability
39 42 42 45 42 55 52 58 55 55 55 55 48 48 42 39 45 52 45 45 42 42 45 42 45 48 48 48 48 39 35 42 32 29 16 26 19 19 19 10 16 16 16
32 23 35 35 39 42 42 42 48 45 45 52 52 42 39 42 45 45 42 42 42 45 32 39 39 39 39 35 32 32 39 29 26 26 23 13 16 23 6 6 6 6 13
26 29 26 29 26 32 35 26 29 35 39 42 39 39 42 42 45 42 39 35 32 35 35 35 35 39 35 35 35 26 26 26 19 23 16 10 3 13 6 6 6 10 10
26 19 23 26 26 23 26 26 32 35 39 35 32 29 35 35 39 42 35 35 35 32 32 32 29 29 26 35 29 23 26 19 19 19 19 13 10 10 10 6 3 10 16
16 13 19 16 16 23 23 32 32 35 39 35 32 32 32 32 32 35 35 35 35 35 26 29 29 29 29 23 23 19 16 13 13 16 13 13 10 6 3 3 3 3 3
16 13 13 16 16 19 16 19 26 32 32 35 32 32 35 35 35 32 35 35 32 29 23 23 26 23 26 23 19 23 19 10 13 16 16 13 13 6 3 0 3 3 0
19 19 13 13 13 13 13 16 16 19 19 23 26 29 32 35 32 29 26 26 26 29 26 19 19 19 19 19 16 19 13 13 13 19 13 16 6 6 3 0 0 3 3
23 19 13 10 10 13 16 16 13 16 19 23 26 23 26 26 19 19 19 23 29 26 19 19 16 16 16 10 13 13 10 13 16 13 16 10 6 3 6 3 3 0 3
19 16 19 13 16 16 19 19 23 19 23 19 19 19 23 23 19 16 16 16 23 13 16 16 13 13 10 6 13 10 10 16 16 13 13 13 3 3 3 3 6 0 0
16 16 16 10 13 13 13 13 19 19 16 16 16 13 19 16 16 13 13 13 13 13 10 10 13 13 13 10 10 13 10 13 13 13 13 10 3 6 6 3 6 6 3
13 19 10 10 16 13 10 13 13 13 16 16 13 13 10 13 13 13 13 13 10 10 13 10 13 13 10 10 10 10 10 13 10 10 3 3 6 6 6 6 6 3 3
16 13 10 13 13 10 13 10 10 13 13 13 10 10 10 10 13 13 13 13 19 13 10 10 10 10 10 16 10 6 3 6 6 3 3 3 3 3 6 3 3 6 0
13 13 13 16 16 10 10 10 6 6 13 6 6 6 6 6 10 6 10 13 13 10 13 13 13 10 10 10 6 10 10 3 3 3 3 3 0 3 0 0 0 0 0
10 10 10 13 10 6 10 13 6 6 3 3 3 3 3 0 3 6 3 10 10 10 13 13 6 10 6 10 10 10 13 6 6 6 6 0 0 0 0 0 0 0 0
10 6 6 10 10 10 6 10 6 6 0 0 0 0 0 0 0 3 3 6 10 10 6 10 10 10 10 10 10 10 6 6 6 3 3 0 0 0 0 0 0 0 0
10 10 6 10 10 6 3 6 6 3 0 0 0 0 0 0 0 3 3 6 10 10 6 6 10 10 6 6 6 6 6 6 6 3 3 3 0 0 0 0 0 0 3
3 6 6 10 6 6 6 6 6 0 0 0 0 0 0 0 0 3 3 3 10 10 6 6 10 6 6 0 0 3 6 6 3 3 3 3 0 0 0 0 0 0 0
3 6 13 6 3 3 10 10 6 0 0 0 0 3 0 0 0 0 3 3 3 3 6 6 6 6 6 0 0 0 3 3 3 6 3 3 3 3 3 3 0 0 0
3 3 0 3 3 3 6 6 6 6 0 0 0 3 0 0 0 0 3 3 3 3 3 6 6 10 10 0 0 0 0 6 3 3 3 3 3 0 0 0 0 0 0
3 0 0 0 3 3 6 10 10 6 3 0 0 3 3 0 0 0 0 0 3 3 3 3 6 6 6 0 0 0 0 3 0 3 3 0 0 0 0 0 0 0 0
3 0 0 0 0 3 3 10 10 6 3 3 0 3 3 0 0 0 0 0 0 3 6 6 6 6 3 0 0 0 0 0 3 3 3 0 0 0 0 0 0 0 0
3 0 0 0 0 0 6 10 10 6 3 3 3 6 6 0 0 0 0 0 3 3 6 6 3 3 0 0 0 0 0 0 0 0 0 0 0 0 0 0 0 0 0
3 0 0 0 0 0 6 6 10 10 6 3 3 3 6 0 0 0 0 3 6 3 6 3 3 3 0 0 0 0 0 0 0 0 0 0 0 0 0 0 0 0 0
0 0 0 0 0 3 3 3 6 10 10 3 3 6 0 0 0 0 0 3 3 3 3 3 0 0 0 0 0 0 0 0 0 0 0 0 0 0 0 0 0 0 0
0 0 0 0 0 0 3 3 3 6 6 6 6 3 3 0 0 0 0 0 0 0 0 0 0 0 0 0 0 0 0 0 0 0 0 0 0 0 0 0 0 0 0
0 0 0 0 0 0 3 3 3 3 6 6 6 10 3 3 3 0 0 0 0 0 0 0 0 0 0 0 0 0 0 0 0 0 0 0 0 0 0 0 0 0 0
Height
5850 5847 5845 5842 5840 5838 5836 5834 5831 5829 5826 5824 5821 5818 5815 5813 5811 5809 5807 5805 5802 5800 5799 5797 5797 5796 5795 5795 5794 5794 5793 5793 5793 5793 5793 5793 5792 5792 5792 5792 5792 5793 5794
5843 5841 5838 5836 5834 5832 5830 5828 5825 5822 5820 5817 5814 5811 5809 5806 5804 5802 5801 5798 5795 5793 5791 5790 5789 5788 5787 5787 5786 5786 5786 5786 5785 5785 5785 5785 5785 5784 5784 5785 5785 5785 5786
5838 5835 5832 5830 5828 5826 5824 5821 5819 5816 5814 5810 5807 5805 5801 5799 5797 5795 5793 5791 5788 5786 5784 5783 5781 5780 5779 5779 5779 5778 5778 5777 5777 5777 5777 5777 5777 5777 5777 5777 5777 5778 5778
5832 5830 5827 5824 5822 5820 5817 5815 5813 5810 5807 5804 5801 5798 5795 5792 5790 5787 5785 5783 5781 5779 5777 5775 5773 5772 5771 5771 5770 5770 5770 5769 5769 5769 5769 5769 5769 5769 5769 5769 5769 5770 5770
5827 5824 5821 5819 5816 5813 5811 5808 5806 5804 5801 5797 5794 5791 5788 5785 5783 5780 5778 5776 5774 5771 5769 5767 5766 5765 5763 5763 5762 5761 5761 5761 5761 5761 5761 5761 5760 5760 5761 5761 5761 5762 5762
5821 5818 5815 5812 5810 5807 5805 5802 5800 5797 5794 5791 5788 5785 5782 5778 5776 5773 5771 5769 5767 5764 5761 5760 5758 5757 5755 5754 5754 5754 5754 5753 5753 5753 5753 5753 5753 5753 5753 5753 5754 5754 5754
5815 5812 5809 5806 5803 5801 5798 5796 5793 5790 5787 5784 5781 5778 5775 5772 5769 5767 5765 5762 5760 5757 5755 5753 5751 5749 5748 5747 5746 5746 5746 5746 5746 5746 5745 5745 5745 5745 5745 5746 5746 5746 5746
5808 5805 5802 5799 5796 5794 5791 5789 5786 5783 5780 5778 5775 5772 5769 5766 5763 5761 5758 5756 5754 5751 5748 5746 5744 5743 5741 5739 5739 5739 5739 5738 5738 5738 5738 5737 5737 5737 5737 5738 5738 5739 5739
5801 5798 5795 5792 5790 5787 5784 5781 5779 5777 5774 5771 5768 5765 5763 5760 5757 5755 5752 5750 5748 5745 5743 5740 5738 5736 5734 5733 5732 5732 5732 5732 5731 5731 5731 5730 5730 5730 5730 5730 5731 5732 5732
5795 5792 5789 5786 5783 5781 5778 5775 5773 5770 5768 5764 5762 5759 5757 5754 5751 5749 5747 5744 5742 5739 5737 5735 5733 5731 5729 5728 5727 5727 5727 5726 5725 5725 5724 5724 5723 5723 5724 5724 5724 5724 5725
5789 5786 5783 5780 5777 5775 5772 5770 5767 5765 5762 5759 5756 5753 5751 5749 5746 5744 5742 5739 5736 5734 5732 5730 5727 5725 5724 5723 5722 5721 5721 5720 5719 5719 5718 5718 5718 5717 5717 5717 5717 5718 5718
5783 5780 5777 5774 5771 5769 5766 5764 5762 5759 5757 5754 5751 5748 5746 5743 5741 5739 5737 5734 5732 5729 5727 5725 5722 5721 5719 5718 5717 5716 5716 5715 5714 5713 5713 5712 5711 5711 5711 5710 5710 5711 5711
5777 5774 5771 5768 5765 5763 5761 5759 5757 5754 5751 5748 5746 5743 5741 5738 5736 5734 5732 5730 5728 5725 5722 5720 5718 5716 5715 5714 5713 5712 5711 5710 5709 5708 5707 5706 5706 5705 5704 5703 5703 5703 5704
5770 5767 5765 5762 5760 5757 5755 5753 5752 5749 5746 5743 5741 5738 5735 5733 5731 5729 5727 5726 5724 5721 5718 5716 5715 5713 5712 5710 5709 5707 5706 5705 5704 5703 5702 5701 5700 5699 5699 5698 5697 5697 5697
5764 5762 5759 5757 5754 5752 5750 5748 5746 5744 5741 5738 5736 5733 5731 5729 5727 5725 5723 5721 5720 5718 5715 5713 5711 5709 5708 5707 5705 5703 5702 5701 5700 5698 5697 5696 5695 5694 5693 5692 5691 5691 5690
5759 5757 5754 5752 5750 5747 5745 5743 5741 5739 5736 5734 5731 5729 5727 5725 5723 5721 5719 5717 5715 5714 5712 5710 5708 5706 5705 5703 5701 5700 5698 5697 5695 5694 5692 5691 5690 5688 5687 5686 5686 5685 5684
5753 5751 5749 5747 5745 5743 5741 5739 5737 5735 5732 5730 5728 5726 5723 5721 5720 5718 5716 5714 5712 5711 5709 5707 5705 5703 5701 5700 5698 5696 5694 5693 5691 5689 5687 5686 5684 5683 5682 5681 5680 5679 5678
5747 5745 5744 5742 5740 5739 5737 5735 5733 5731 5728 5727 5725 5723 5720 5718 5716 5714 5712 5711 5710 5708 5706 5704 5702 5700 5699 5697 5695 5692 5690 5688 5687 5685 5683 5681 5679 5678 5676 5675 5674 5673 5672
5741 5740 5738 5737 5736 5734 5732 5731 5729 5727 5725 5723 5721 5719 5717 5715 5713 5711 5710 5708 5707 5705 5703 5701 5700 5698 5696 5693 5691 5689 5687 5685 5683 5681 5679 5677 5675 5673 5672 5670 5669 5668 5666
5736 5734 5733 5732 5731 5729 5728 5726 5724 5722 5721 5719 5717 5715 5714 5712 5710 5709 5707 5706 5704 5702 5701 5699 5697 5695 5693 5691 5688 5686 5683 5681 5679 5677 5675 5673 5671 5669 5667 5666 5665 5663 5661
5730 5729 5728 5727 5726 5724 5723 5721 5720 5718 5717 5716 5714 5712 5711 5709 5708 5706 5705 5703 5702 5700 5698 5697 5695 5693 5691 5688 5686 5683 5680 5678 5675 5673 5671 5669 5667 5665 5663 5662 5660 5659 5657
5725 5724 5723 5722 5721 5720 5718 5717 5716 5715 5713 5712 5711 5710 5708 5707 5706 5704 5703 5701 5700 5698 5696 5695 5692 5690 5688 5686 5683 5681 5678 5675 5672 5670 5667 5665 5663 5661 5659 5658 5656 5654 5652
5721 5720 5719 5718 5717 5716 5715 5714 5712 5711 5710 5709 5708 5707 5706 5705 5704 5702 5701 5699 5698 5696 5695 5693 5690 5688 5686 5683 5681 5678 5675 5673 5670 5667 5665 5662 5660 5657 5655 5653 5651 5649 5648
5718 5717 5716 5715 5714 5713 5712 5710 5709 5708 5707 5706 5705 5705 5704 5703 5701 5700 5699 5698 5696 5695 5693 5691 5688 5686 5684 5681 5679 5676 5673 5670 5667 5664 5661 5659 5656 5654 5652 5650 5648 5646 5643
5715 5714 5713 5713 5712 5710 5709 5708 5707 5706 5705 5704 5703 5702 5702 5701 5700 5699 5698 5696 5695 5693 5691 5689 5687 5684 5682 5679 5676 5674 5671 5668 5665 5661 5659 5656 5653 5651 5649 5646 5644 5642 5640
5712 5712 5711 5710 5709 5708 5707 5706 5705 5704 5703 5702 5701 5701 5700 5700 5699 5698 5697 5695 5694 5692 5690 5688 5685 5683 5680 5677 5674 5671 5669 5665 5662 5659 5656 5653 5650 5648 5645 5642 5640 5637 5635
Wind_Speed
25 26 26 25 25 26 26 27 27 27 27 27 28 28 29 28 29 30 29 29 29 30 29 30 30 30 30 31 32 32 31 30 30 30 30 29 29 29 29 28 29 29 29
25 26 25 25 25 26 26 26 27 27 28 28 29 29 29 29 30 30 29 30 29 28 29 29 30 31 30 31 31 31 31 31 31 31 31 31 29 28 29 29 29 29 29
24 25 25 25 25 26 26 26 27 27 28 29 29 30 29 30 29 30 31 29 29 28 29 29 30 30 30 30 30 30 31 30 31 31 31 30 29 29 29 30 30 30 30
25 25 25 25 25 26 27 27 27 27 28 29 30 31 30 29 29 30 30 29 28 28 28 28 29 29 30 30 30 30 30 30 30 30 30 30 30 29 29 29 30 30 30
25 25 26 25 25 25 26 26 27 28 29 29 29 30 29 29 28 29 28 28 27 27 27 27 28 28 29 29 29 29 29 30 30 30 30 30 30 29 29 29 30 30 30
25 25 26 26 26 26 27 27 28 28 29 29 29 29 28 28 27 27 26 26 26 26 26 26 27 27 28 28 28 29 29 30 30 29 29 29 29 29 29 28 29 29 29
25 26 26 27 27 27 28 28 28 29 29 28 28 27 27 26 26 26 25 25 25 26 25 25 26 26 25 25 26 26 27 28 28 28 27 27 27 27 27 27 27 27 27
26 26 26 26 27 27 27 27 28 27 27 27 27 27 26 25 25 25 24 24 24 24 23 24 23 24 24 24 25 26 26 26 27 27 27 26 26 26 26 26 26 26 27
26 25 25 25 26 26 26 26 26 26 27 26 26 25 23 23 23 23 23 23 23 22 22 23 22 22 22 22 22 23 24 24 25 25 25 24 24 24 24 25 25 25 26
26 25 25 25 25 24 24 25 25 25 25 24 24 23 22 21 22 22 21 21 21 21 21 21 22 22 21 21 22 23 23 23 23 23 23 23 22 21 22 23 23 24 24
27 26 25 26 25 24 24 24 24 25 24 24 24 22 21 21 20 20 19 19 20 20 20 20 20 20 19 19 20 20 20 20 21 21 22 22 23 22 22 23 23 24 25
26 26 26 26 25 24 23 23 23 23 23 23 22 21 20 20 19 18 17 17 17 18 18 18 18 18 17 17 16 17 18 19 19 19 20 20 22 22 22 23 23 24 25
25 25 24 25 24 23 22 22 23 23 22 22 22 21 19 18 18 18 17 17 17 17 17 17 17 16 16 16 16 16 16 17 18 18 18 19 20 20 20 21 22 23 24
24 24 22 22 22 21 21 21 21 21 21 21 22 21 19 18 18 17 16 16 16 15 15 14 14 14 15 15 14 14 15 15 16 17 18 18 18 19 19 19 20 21 22
23 22 21 21 20 19 19 19 19 20 20 20 20 20 18 17 17 16 15 15 14 14 13 13 13 13 15 15 13 14 15 16 16 17 18 18 18 18 19 20 20 22 23
22 21 20 19 19 18 18 18 18 18 18 18 17 16 16 16 16 16 16 15 14 12 12 12 12 13 14 14 13 14 15 16 16 17 18 18 19 19 19 20 21 22 22
21 20 18 18 18 17 17 16 16 16 16 16 16 16 16 15 15 15 15 13 12 12 12 11 11 12 12 13 14 14 15 15 16 17 17 18 18 18 18 18 19 20 20
20 19 18 17 17 16 16 16 16 16 16 15 15 15 14 14 13 14 13 12 11 12 11 11 11 11 12 13 13 14 15 15 16 16 17 17 17 16 17 18 18 19 18
20 19 18 17 17 16 16 16 17 17 15 14 13 13 13 12 13 12 11 11 11 11 11 11 12 12 12 13 13 14 14 14 15 15 15 15 15 15 15 16 16 16 17
19 19 17 17 16 16 16 16 15 15 14 13 12 12 12 12 11 10 10 10 10 11 11 11 12 12 13 13 13 13 14 14 14 15 15 15 15 14 14 14 15 15 16
18 17 17 16 15 15 15 14 14 13 13 12 11 11 11 11 10 10 10 10 10 11 11 11 12 11 12 12 12 13 14 14 14 14 15 14 14 13 13 13 14 14 15
15 15 14 13 13 13 13 13 12 12 12 11 11 10 10 9 9 9 9 9 10 11 11 12 12 12 12 12 12 12 13 13 14 14 14 14 14 13 14 14 14 14 14
13 13 13 12 11 11 11 11 11 11 11 10 10 9 8 8 8 8 8 8 10 10 10 11 11 11 11 11 12 12 13 14 14 14 14 14 13 13 13 14 14 14 15
12 11 11 11 10 9 10 9 9 9 9 9 8 8 7 7 8 8 8 9 9 9 10 10 11 11 12 12 12 13 13 14 15 15 14 14 13 13 14 14 14 15 15
10 9 9 9 9 8 8 8 8 7 7 7 7 7 6 6 7 8 8 9 9 10 10 11 11 12 12 12 13 13 14 14 15 15 14 13 13 14 14 14 15 15 16
8 8 8 8 7 7 7 7 7 6 6 6 6 6 6 6 7 7 8 8 9 9 10 11 11 12 12 13 14 14 15 15 15 15 15 15 15 15 15 15 15 15 16
Wind_Direction
295 294 295 291 288 288 288 288 289 290 291 292 292 291 291 290 289 288 287 287 287 284 281 277 275 274 273 270 269 269 269 268 269 270 271 271 271 270 267 265 263 263 263
297 296 293 290 286 287 288 288 289 290 291 292 292 291 289 291 292 289 288 288 286 283 279 277 276 274 272 271 269 269 269 268 268 270 270 270 270 270 268 266 264 263 262
299 298 296 292 289 289 289 289 290 292 293 294 294 293 292 292 291 290 288 288 287 285 282 278 277 276 274 271 270 268 268 268 268 269 269 269 268 269 268 267 265 263 261
297 296 296 295 292 291 289 290 291 293 293 296 295 295 293 292 290 289 288 289 290 286 284 279 277 276 273 270 267 267 267 266 267 270 270 269 267 268 268 267 266 264 262
296 295 295 295 294 293 293 293 292 294 296 297 298 296 295 294 290 290 290 289 289 288 285 280 278 275 272 270 268 268 267 265 266 268 268 267 267 268 268 266 266 265 263
298 297 296 296 294 293 293 294 294 295 296 296 297 296 296 295 293 293 291 289 289 289 288 283 280 278 274 271 269 268 267 265 267 268 268 267 265 265 266 265 264 264 264
301 299 298 297 295 293 293 293 294 295 296 297 297 297 297 295 293 292 291 290 290 290 288 287 283 282 277 270 267 267 267 265 265 266 266 266 267 266 266 264 263 264 264
303 300 300 299 297 295 294 294 295 296 297 298 298 298 295 294 293 292 291 293 291 291 289 288 285 282 279 271 267 267 266 265 266 266 265 266 266 267 266 263 262 262 263
302 301 301 300 298 297 295 296 296 296 297 299 300 299 297 296 295 294 293 293 292 292 292 291 288 285 281 275 269 270 266 266 266 265 265 264 265 267 266 262 260 261 261
302 301 300 300 298 297 297 298 298 298 298 300 301 301 298 297 297 297 296 295 293 293 294 294 291 289 284 278 273 270 267 267 267 267 265 265 266 266 265 263 261 261 261
301 300 300 300 298 295 296 297 298 298 297 299 303 301 299 298 299 300 299 298 295 296 296 296 296 292 288 281 276 271 271 271 271 269 267 264 264 265 264 264 264 264 262
301 300 300 299 297 295 297 298 299 299 300 301 304 303 298 298 298 299 302 302 301 301 301 300 296 293 288 284 278 278 278 275 275 274 271 269 268 268 267 266 266 265 264
303 302 300 299 299 297 297 298 300 300 301 304 305 303 299 300 298 298 301 302 302 303 303 302 297 293 287 285 284 283 279 279 278 279 277 276 274 273 271 270 267 265 265
302 303 302 300 299 300 299 297 297 301 304 305 304 302 300 300 298 296 299 301 302 304 302 300 299 293 289 290 289 285 284 284 283 282 281 279 278 276 274 273 270 268 266
299 300 302 302 302 302 300 298 299 302 305 307 307 305 301 301 300 300 302 302 302 302 303 304 300 295 295 295 292 289 288 288 287 286 285 283 282 279 278 277 275 273 270
298 299 300 302 302 302 302 301 302 303 307 308 312 310 308 304 303 303 304 304 303 303 305 306 304 298 297 294 294 294 291 290 290 290 287 285 285 280 280 280 278 276 272
298 298 299 299 299 301 302 304 306 306 308 311 311 312 311 308 305 305 307 306 307 305 304 304 300 300 300 301 301 297 294 292 293 292 290 289 290 284 283 282 280 277 274
298 299 299 299 300 302 302 305 309 309 311 314 314 312 311 306 305 307 307 306 304 303 302 301 299 299 301 303 304 302 297 295 298 297 295 293 291 287 284 283 283 281 279
299 298 298 297 297 299 301 303 307 308 309 311 312 313 310 306 303 302 304 306 307 309 306 304 304 306 309 311 309 309 304 301 302 301 299 299 293 290 288 287 286 285 284
298 296 297 297 296 297 299 302 306 308 307 308 312 314 312 309 307 306 307 310 310 312 317 314 314 314 318 318 318 317 315 312 308 305 304 303 300 295 294 294 293 292 288
297 297 299 299 298 299 302 303 304 306 306 305 309 314 314 314 315 317 315 314 315 318 319 321 326 323 321 321 319 318 317 316 314 314 313 308 303 298 296 296 296 296 294
297 299 302 302 301 301 304 305 305 306 307 304 306 311 315 317 320 324 321 317 320 320 319 319 322 325 324 323 319 319 319 321 322 320 316 314 310 302 300 298 297 295 295
300 302 304 304 304 304 306 307 307 307 307 303 303 307 317 321 323 327 327 325 327 325 325 327 327 328 328 329 330 327 325 327 325 322 318 316 312 305 303 304 303 300 298
299 302 304 308 305 304 308 310 312 313 311 306 305 308 318 326 333 333 334 333 334 335 335 336 334 331 332 331 331 330 329 327 326 324 322 317 312 309 308 307 306 303 302
295 299 303 309 307 304 310 315 317 320 318 314 312 313 319 330 339 337 341 341 340 340 340 338 336 335 334 333 331 331 330 328 326 326 323 319 317 316 312 310 309 305 303
289 293 297 304 310 315 315 315 316 324 323 316 316 317 322 329 338 339 345 348 347 347 344 342 340 338 335 333 332 330 328 328 328 327 325 322 319 319 317 316 314 310 306